Regional Weather Roundup
Issued by NWS

Home | Current Version | Previous Version | Graphics & Text | Print | Product List | Glossary On
Versions: 1 2 3 4 5 6 7 8 9 10 11 12 13 14 15 16 17 18 19 20 21 22 23 24 25 26 27 28 29 30 31 32 33 34 35 36 37 38 39 40 41 42 43 44 45 46 47 48 49 50
000
ASUS45 KABQ 300710
RWRNM
NEW MEXICO REGIONAL WEATHER ROUNDUP
NATIONAL WEATHER SERVICE ALBUQUERQUE NM
100 AM MDT SAT MAY 30 2015

NOTE: "FAIR" MEANS FEW OR NO CLOUDS BELOW 12,000 FEET AGL WITH NO
       SIGNIFICANT WEATHER OR OBSTRUCTIONS TO VISION.

      THIS PRODUCT IS RELEASED AS TWO VERSIONS.  ONE VERSION NEAR
      THE TOP OF THE HOUR CONTAINING PRELIMINARY DATA FROM ALBUQUERQUE
      AND OTHER STATIONS.  A FINAL VERSION WITH ADDITIONAL DATA IS
      ISSUED ABOUT 10 MINUTES AFTER THE HOUR.

NMZ501-503-504-510>518-300800-
NORTHWEST PLATEAU/NORTHCENTRAL MOUNTAINS

CITY           SKY/WX    TMP DP  RH WIND       PRES   REMARKS
FARMINGTON     CLEAR     54  22  28 N5        30.19R
LOS ALAMOS     PTCLDY    55  28  35 S9        30.32R
SANTA FE       PTCLDY    58  40  51 S7        30.26R
TAOS           PTCLDY    54  36  50 E22G31    30.32S
ANGEL FIRE     CLOUDY    47  38  71 E5        30.43R

$$
NMZ402-403-502-505>509-300800-
WESTCENTRAL MOUNTAINS/SOUTHWEST MOUNTAINS

CITY           SKY/WX    TMP DP  RH WIND       PRES   REMARKS
GALLUP         CLEAR     45  29  53 CALM      30.26S
GRANTS         CLEAR     46  29  52 CALM      30.29R
SILVER CITY      N/A     59  19  21 N12       30.16R

$$
NMZ407-409-411-412-300800-
SOUTHERN DESERTS

CITY           SKY/WX    TMP DP  RH WIND       PRES   REMARKS
LORDSBURG      FAIR      64  21  19 W7        30.05S
DEMING         CLEAR     75  27  17 N12       30.05R
LAS CRUCES     PTCLDY    74  23  15 NW10      30.04S
HOLLOMAN AFB   MOCLDY    69  32  24 NW6       30.02R
ALAMOGORDO     PTCLDY    68  32  26 NW10      30.04R
T OR C         MOCLDY    73  32  22 N10       30.11R

$$
NMZ519>523-300800-
CENTRAL VALLEYS/CENTRAL HIGHLANDS

CITY           SKY/WX    TMP DP  RH WIND       PRES   REMARKS
ALBUQUERQUE    MOCLDY    63  45  51 E24G40    30.20S
DOUBLE EAGLE   PTCLDY    58  44  60 SE13      30.24R
MORIARTY ARPT  FAIR      55  46  71 E14       30.29S
CLINES CORNERS PTCLDY    51  45  79 E14       30.31F
BELEN          FAIR      61  41  48 NE9       30.19R
SOCORRO        FAIR      64  34  32 N15G25    30.16R

$$
NMZ524>526-539-540-300800-
SOUTHCENTRAL MOUNTAINS

CITY           SKY/WX    TMP DP  RH WIND       PRES   REMARKS
RUIDOSO        MOCLDY    57  46  67 N3        30.31R

$$
NMZ527>531-300800-
NORTHEAST HIGHLANDS/NORTHEAST PLAINS

CITY           SKY/WX    TMP DP  RH WIND       PRES   REMARKS
LAS VEGAS      MOCLDY    47  43  86 NE8       30.36S
RATON          MOCLDY    49  44  83 NE5       30.36R
CLAYTON        CLOUDY    52  49  89 NW13      30.30R

$$
NMZ532>537-300800-
EASTCENTRAL PLAINS

CITY           SKY/WX    TMP DP  RH WIND       PRES   REMARKS
TUCUMCARI      CLOUDY    59  54  83 NE13      30.19F
CANNON AFB     CLOUDY    57  54  88 N13       30.17S
CLOVIS AIRPORT CLOUDY    55  54  94 N10       30.15F

$$
NMZ028-029-538-300800-
SOUTHEAST PLAINS

CITY           SKY/WX    TMP DP  RH WIND       PRES   REMARKS
ROSWELL        TSTM      55  53  93 S8        30.15R FOG
ARTESIA        PTCLDY    68  54  60 N22       30.12R
CARLSBAD       CLEAR     68  60  75 CALM      30.02F
HOBBS          MOCLDY    59  55  88 CALM      30.10R


$$


USA.gov is the U.S. government's official web portal to all federal, state and local government web resources and services.